Regional Weather Roundup
Issued by NWS Glasgow, MT

Home | Current Version | Previous Version | Text Only | Print | Product List | Glossary On
Versions: 1 2 3 4 5 6 7 8 9 10 11 12 13 14 15 16 17 18 19 20 21 22 23 24 25 26 27
000
ASUS45 KGGW 180915
RWRGGW
HOURLY REGIONAL WEATHER ROUNDUP FOR NORTHEAST MONTANA
NATIONAL WEATHER SERVICE GLASGOW MONTANA
200 AM MST WED JAN 18 2017

NOTE: "FAIR" INDICATES FEW OR NO CLOUDS BELOW 12,000 FEET WITH NO
SIGNIFICANT WEATHER AND/OR OBSTRUCTIONS TO VISISBILITY.

NORTHEAST MONTANA


CITY           SKY/WX    TMP DP  RH WIND       PRES   REMARKS
GLASGOW        CLOUDY    27  22  81 SE12      29.65F
PLENTYWOOD       N/A     34  28  79 SE5         N/A
WOLF POINT     CLOUDY    12   7  80 CALM      29.70F
JORDAN           N/A     40  27  59 W8        29.68S
WINNETT          N/A     41  27  57 S9G18       N/A
SIDNEY         CLOUDY    27  21  78 S12       29.72S
GLENDIVE       CLOUDY    24  18  77 S10       29.75R
MALTA            N/A     36  30  80 W5G13       N/A
SCOBEY           N/A     37  24  60 SW6       29.65F

FORT PECK REPORTS


CITY           SKY/WX    TMP DP  RH WIND       PRES   REMARKS
FORT PECK        N/A     34  29  82 SE10        N/A
THE PINES        N/A     34  28  79 CALM        N/A

SOUTHEAST MONTANA


CITY           SKY/WX    TMP DP  RH WIND       PRES   REMARKS
BILLINGS       CLOUDY    32  15  49 SW26      29.78F
MILES CITY     CLOUDY    23  14  68 VRB7      29.78R
BAKER          CLEAR     37  22  54 SW21      29.76F
LIVINGSTON     CLOUDY    42  15  33 SW30G44   29.79S

CENTRAL MONTANA


CITY           SKY/WX    TMP DP  RH WIND       PRES   REMARKS
HAVRE          CLOUDY    37  30  75 SW17      29.59F
LEWISTOWN      CLOUDY    45  27  49 SW25      29.69F
GREAT FALLS    CLOUDY    41  25  53 SW28      29.65F
CUT BANK       PTCLDY    39  27  62 S7        29.57S
HELENA         CLOUDY     7   3  84 CALM      29.83F
BUTTE          CLOUDY     9   5  84 SE3       29.86F
BOZEMAN        CLOUDY    11   6  81 S8        29.87F

WESTERN MONTANA


CITY           SKY/WX    TMP DP  RH WIND       PRES   REMARKS
MISSOULA       CLOUDY    15  11  83 CALM      29.86F
KALISPELL      NOT AVBL

NORTH DAKOTA


CITY           SKY/WX    TMP DP  RH WIND       PRES   REMARKS
WILLISTON      CLOUDY    31  23  72 SW15      29.69F
DICKINSON      CLOUDY    32  22  66 SW20      29.72S
MINOT          CLOUDY    37  27  67 SW16      29.65R
BISMARCK       CLOUDY    20  15  81 SE3       29.75R

SOUTHERN SASKATCHEWAN


CITY           SKY/WX    TMP DP  RH WIND       PRES   REMARKS
REGINA         PTCLDY    30  27  86 S6        29.54F
ESTEVAN        PTCLDY    28  25  86 SW15      29.62S
SWIFT CURRENT  PTCLDY    43  32  65 SW21G26   29.46F





USA.gov is the U.S. government's official web portal to all federal, state and local government web resources and services.